date,time,SUV Intensity [MED/Hr],UV Index,Daily total [MED],Since Last [MED]
11/04/2023,00:00:28,0.000,0.0,0.0,0.0
11/04/2023,00:01:27,0.001,0.0,0.0,0.0
11/04/2023,00:02:28,0.000,0.0,0.0,0.0
11/04/2023,00:03:28,0.001,0.0,0.0,0.0
11/04/2023,00:04:28,0.000,0.0,0.0,0.0
11/04/2023,00:05:28,0.000,0.0,0.0,0.0
11/04/2023,00:06:28,0.000,0.0,0.0,0.0
11/04/2023,00:07:28,0.000,0.0,0.0,0.0
11/04/2023,00:08:27,0.000,0.0,0.0,0.0
11/04/2023,00:09:28,0.000,0.0,0.0,0.0
11/04/2023,00:10:27,0.000,0.0,0.0,0.0
11/04/2023,00:11:28,0.001,0.0,0.0,0.0
11/04/2023,00:12:27,0.000,0.0,0.0,0.0
11/04/2023,00:13:27,0.000,0.0,0.0,0.0
11/04/2023,00:14:28,-0.001,0.0,0.0,0.0
11/04/2023,00:15:28,0.000,0.0,0.0,0.0
11/04/2023,00:16:27,0.000,0.0,0.0,0.0
11/04/2023,00:17:28,0.000,0.0,0.0,0.0
11/04/2023,00:18:28,0.001,0.0,0.0,0.0
11/04/2023,00:19:28,0.000,0.0,0.0,0.0
11/04/2023,00:20:28,0.000,0.0,0.0,0.0
11/04/2023,00:21:27,0.000,0.0,0.0,0.0
11/04/2023,00:22:28,0.000,0.0,0.0,0.0
11/04/2023,00:23:28,0.000,0.0,0.0,0.0
11/04/2023,00:24:28,0.000,0.0,0.0,0.0
11/04/2023,00:25:28,-0.000,0.0,0.0,0.0
11/04/2023,00:26:28,-0.001,0.0,0.0,0.0
11/04/2023,00:27:28,0.000,0.0,0.0,0.0
11/04/2023,00:28:28,0.001,0.0,0.0,0.0
11/04/2023,00:29:28,0.000,0.0,0.0,0.0
11/04/2023,00:30:28,0.000,0.0,0.0,0.0
11/04/2023,00:31:28,0.000,0.0,0.0,0.0
11/04/2023,00:32:28,0.000,0.0,0.0,0.0
11/04/2023,00:33:28,0.000,0.0,0.0,0.0
11/04/2023,00:34:28,0.000,0.0,0.0,0.0
11/04/2023,00:35:28,0.001,0.0,0.0,0.0
11/04/2023,00:36:28,-0.001,0.0,0.0,0.0
11/04/2023,00:37:28,0.000,0.0,0.0,0.0
11/04/2023,00:38:28,0.000,0.0,0.0,0.0
11/04/2023,00:39:28,0.000,0.0,0.0,0.0
11/04/2023,00:40:28,0.000,0.0,0.0,0.0
11/04/2023,00:41:28,0.001,0.0,0.0,0.0
11/04/2023,00:42:28,0.000,0.0,0.0,0.0
11/04/2023,00:43:28,0.000,0.0,0.0,0.0
11/04/2023,00:44:28,0.000,0.0,0.0,0.0
11/04/2023,00:45:28,0.001,0.0,0.0,0.0
11/04/2023,00:46:27,0.000,0.0,0.0,0.0
11/04/2023,00:47:28,-0.001,0.0,0.0,0.0
11/04/2023,00:48:28,0.000,0.0,0.0,0.0
11/04/2023,00:49:28,0.000,0.0,0.0,0.0
11/04/2023,00:50:28,0.000,0.0,0.0,0.0
11/04/2023,00:51:28,0.000,0.0,0.0,0.0
11/04/2023,00:52:28,0.001,0.0,0.0,0.0
11/04/2023,00:53:28,0.000,0.0,0.0,0.0
11/04/2023,00:54:28,0.000,0.0,0.0,0.0
11/04/2023,00:55:28,0.001,0.0,0.0,0.0
11/04/2023,00:56:28,0.000,0.0,0.0,0.0
11/04/2023,00:57:28,0.000,0.0,0.0,0.0
11/04/2023,00:58:27,-0.001,0.0,0.0,0.0
11/04/2023,00:59:27,0.001,0.0,0.0,0.0
11/04/2023,01:00:28,0.000,0.0,0.0,0.0
11/04/2023,01:01:28,0.000,0.0,0.0,0.0
11/04/2023,01:02:28,0.000,0.0,0.0,0.0
11/04/2023,01:03:28,0.000,0.0,0.0,0.0
11/04/2023,01:04:28,-0.001,0.0,0.0,0.0
11/04/2023,01:05:28,0.000,0.0,0.0,0.0
11/04/2023,01:06:28,0.000,0.0,0.0,0.0
11/04/2023,01:07:28,0.000,0.0,0.0,0.0
11/04/2023,01:08:27,0.000,0.0,0.0,0.0
11/04/2023,01:09:28,-0.001,0.0,0.0,0.0
11/04/2023,01:10:28,0.000,0.0,0.0,0.0
11/04/2023,01:11:28,0.000,0.0,0.0,0.0
11/04/2023,01:12:28,0.000,0.0,0.0,0.0
11/04/2023,01:13:28,0.001,0.0,0.0,0.0
11/04/2023,01:14:28,0.000,0.0,0.0,0.0
11/04/2023,01:15:28,-0.001,0.0,0.0,0.0
11/04/2023,01:16:28,0.000,0.0,0.0,0.0
11/04/2023,01:17:28,0.001,0.0,0.0,0.0
11/04/2023,01:18:28,0.000,0.0,0.0,0.0
11/04/2023,01:19:28,0.000,0.0,0.0,0.0
11/04/2023,01:20:28,0.001,0.0,0.0,0.0
11/04/2023,01:21:28,0.000,0.0,0.0,0.0
11/04/2023,01:22:28,-0.001,0.0,0.0,0.0
11/04/2023,01:23:29,0.001,0.0,0.0,0.0
11/04/2023,01:24:28,0.000,0.0,0.0,0.0
11/04/2023,01:25:28,0.000,0.0,0.0,0.0
11/04/2023,01:26:27,0.000,0.0,0.0,0.0
11/04/2023,01:27:27,0.000,0.0,0.0,0.0
11/04/2023,01:28:28,0.000,0.0,0.0,0.0
11/04/2023,01:29:28,0.000,0.0,0.0,0.0
11/04/2023,01:30:28,0.000,0.0,0.0,0.0
11/04/2023,01:31:28,0.000,0.0,0.0,0.0
11/04/2023,01:32:28,0.000,0.0,0.0,0.0
11/04/2023,01:33:28,0.000,0.0,0.0,0.0
11/04/2023,01:34:28,0.000,0.0,0.0,0.0
11/04/2023,01:35:28,0.000,0.0,0.0,0.0
11/04/2023,01:36:28,0.000,0.0,0.0,0.0
11/04/2023,01:37:28,0.000,0.0,0.0,0.0
11/04/2023,01:38:28,0.000,0.0,0.0,0.0
11/04/2023,01:39:28,0.000,0.0,0.0,0.0
11/04/2023,01:40:28,0.000,0.0,0.0,0.0
11/04/2023,01:41:28,0.000,0.0,0.0,0.0
11/04/2023,01:42:28,0.000,0.0,0.0,0.0
11/04/2023,01:43:28,0.000,0.0,0.0,0.0
11/04/2023,01:44:28,0.000,0.0,0.0,0.0
11/04/2023,01:45:28,0.001,0.0,0.0,0.0
11/04/2023,01:46:28,-0.001,0.0,0.0,0.0
11/04/2023,01:47:28,0.000,0.0,0.0,0.0
11/04/2023,01:48:28,0.000,0.0,0.0,0.0
11/04/2023,01:49:28,0.000,0.0,0.0,0.0
11/04/2023,01:50:28,0.000,0.0,0.0,0.0
11/04/2023,01:51:28,0.000,0.0,0.0,0.0
11/04/2023,01:52:28,0.000,0.0,0.0,0.0
11/04/2023,01:53:28,0.000,0.0,0.0,0.0
11/04/2023,01:54:28,-0.001,0.0,0.0,0.0
11/04/2023,01:55:28,0.000,0.0,0.0,0.0
11/04/2023,01:56:28,0.000,0.0,0.0,0.0
11/04/2023,01:57:28,0.000,0.0,0.0,0.0
11/04/2023,01:58:28,0.000,0.0,0.0,0.0
11/04/2023,01:59:28,0.000,0.0,0.0,0.0
11/04/2023,02:00:28,0.000,0.0,0.0,0.0
11/04/2023,02:01:28,0.000,0.0,0.0,0.0
11/04/2023,02:02:28,-0.000,0.0,0.0,0.0
11/04/2023,02:03:28,0.000,0.0,0.0,0.0
11/04/2023,02:04:28,0.000,0.0,0.0,0.0
11/04/2023,02:05:28,0.000,0.0,0.0,0.0
11/04/2023,02:06:28,-0.001,0.0,0.0,0.0
11/04/2023,02:07:28,-0.001,0.0,0.0,0.0
11/04/2023,02:08:28,-0.001,0.0,0.0,0.0
11/04/2023,02:09:28,0.001,0.0,0.0,0.0
11/04/2023,02:10:27,-0.001,0.0,0.0,0.0
11/04/2023,02:11:29,0.001,0.0,0.0,0.0
11/04/2023,02:12:28,0.000,0.0,0.0,0.0
11/04/2023,02:13:27,0.000,0.0,0.0,0.0
11/04/2023,02:14:28,0.000,0.0,0.0,0.0
11/04/2023,02:15:28,0.001,0.0,0.0,0.0
11/04/2023,02:16:29,0.000,0.0,0.0,0.0
11/04/2023,02:17:28,-0.001,0.0,0.0,0.0
11/04/2023,02:18:28,0.000,0.0,0.0,0.0
11/04/2023,02:19:28,0.001,0.0,0.0,0.0
11/04/2023,02:20:27,0.000,0.0,0.0,0.0
11/04/2023,02:21:28,0.000,0.0,0.0,0.0
11/04/2023,02:22:28,0.000,0.0,0.0,0.0
11/04/2023,02:23:28,0.000,0.0,0.0,0.0
11/04/2023,02:24:28,0.000,0.0,0.0,0.0
11/04/2023,02:25:28,0.000,0.0,0.0,0.0
11/04/2023,02:26:29,0.001,0.0,0.0,0.0
11/04/2023,02:27:28,0.000,0.0,0.0,0.0
11/04/2023,02:28:28,-0.001,0.0,0.0,0.0
11/04/2023,02:29:28,0.000,0.0,0.0,0.0
11/04/2023,02:30:28,0.001,0.0,0.0,0.0
11/04/2023,02:31:28,0.000,0.0,0.0,0.0
11/04/2023,02:32:28,0.000,0.0,0.0,0.0
11/04/2023,02:33:28,0.000,0.0,0.0,0.0
11/04/2023,02:34:28,0.000,0.0,0.0,0.0
11/04/2023,02:35:28,0.000,0.0,0.0,0.0
11/04/2023,02:36:28,-0.001,0.0,0.0,0.0
11/04/2023,02:37:28,0.001,0.0,0.0,0.0
11/04/2023,02:38:28,0.000,0.0,0.0,0.0
11/04/2023,02:39:29,0.000,0.0,0.0,0.0
11/04/2023,02:40:28,0.001,0.0,0.0,0.0
11/04/2023,02:41:28,0.000,0.0,0.0,0.0
11/04/2023,02:42:29,0.000,0.0,0.0,0.0
11/04/2023,02:43:28,0.001,0.0,0.0,0.0
11/04/2023,02:44:28,0.000,0.0,0.0,0.0
11/04/2023,02:45:28,0.000,0.0,0.0,0.0
11/04/2023,02:46:28,0.000,0.0,0.0,0.0
11/04/2023,02:47:28,0.000,0.0,0.0,0.0
11/04/2023,02:48:28,0.000,0.0,0.0,0.0
11/04/2023,02:49:29,0.000,0.0,0.0,0.0
11/04/2023,02:50:28,0.000,0.0,0.0,0.0
11/04/2023,02:51:28,0.001,0.0,0.0,0.0
11/04/2023,02:52:28,0.001,0.0,0.0,0.0
11/04/2023,02:53:28,0.001,0.0,0.0,0.0
11/04/2023,02:54:28,-0.000,0.0,0.0,0.0
11/04/2023,02:55:28,0.000,0.0,0.0,0.0
11/04/2023,02:56:28,0.000,0.0,0.0,0.0
11/04/2023,02:57:29,0.000,0.0,0.0,0.0
11/04/2023,02:58:28,0.000,0.0,0.0,0.0
11/04/2023,02:59:28,0.000,0.0,0.0,0.0
11/04/2023,03:00:28,0.001,0.0,0.0,0.0
11/04/2023,03:01:28,0.000,0.0,0.0,0.0
11/04/2023,03:02:28,0.000,0.0,0.0,0.0
11/04/2023,03:03:29,0.000,0.0,0.0,0.0
11/04/2023,03:04:29,0.001,0.0,0.0,0.0
11/04/2023,03:05:28,0.001,0.0,0.0,0.0
11/04/2023,03:06:28,0.001,0.0,0.0,0.0
11/04/2023,03:07:28,-0.001,0.0,0.0,0.0
11/04/2023,03:08:28,0.000,0.0,0.0,0.0
11/04/2023,03:09:28,0.000,0.0,0.0,0.0
11/04/2023,03:10:28,0.000,0.0,0.0,0.0
11/04/2023,03:11:28,0.001,0.0,0.0,0.0
11/04/2023,03:12:28,0.000,0.0,0.0,0.0
11/04/2023,03:13:28,0.000,0.0,0.0,0.0
11/04/2023,03:14:28,0.000,0.0,0.0,0.0
11/04/2023,03:15:28,0.001,0.0,0.0,0.0
11/04/2023,03:16:28,0.000,0.0,0.0,0.0
11/04/2023,03:17:28,0.001,0.0,0.0,0.0
11/04/2023,03:18:28,0.000,0.0,0.0,0.0
11/04/2023,03:19:28,0.000,0.0,0.0,0.0
11/04/2023,03:20:28,0.000,0.0,0.0,0.0
11/04/2023,03:21:28,0.001,0.0,0.0,0.0
11/04/2023,03:22:28,0.000,0.0,0.0,0.0
11/04/2023,03:23:29,0.000,0.0,0.0,0.0
11/04/2023,03:24:28,-0.001,0.0,0.0,0.0
11/04/2023,03:25:28,0.001,0.0,0.0,0.0
11/04/2023,03:26:28,0.000,0.0,0.0,0.0
11/04/2023,03:27:28,0.000,0.0,0.0,0.0
11/04/2023,03:28:28,0.001,0.0,0.0,0.0
11/04/2023,03:29:29,0.000,0.0,0.0,0.0
11/04/2023,03:30:29,0.000,0.0,0.0,0.0
11/04/2023,03:31:28,0.000,0.0,0.0,0.0
11/04/2023,03:32:28,0.000,0.0,0.0,0.0
11/04/2023,03:33:28,0.001,0.0,0.0,0.0
11/04/2023,03:34:28,0.000,0.0,0.0,0.0
11/04/2023,03:35:28,0.000,0.0,0.0,0.0
11/04/2023,03:36:28,0.000,0.0,0.0,0.0
11/04/2023,03:37:28,0.001,0.0,0.0,0.0
11/04/2023,03:38:28,0.000,0.0,0.0,0.0
11/04/2023,03:39:28,0.000,0.0,0.0,0.0
11/04/2023,03:40:28,0.000,0.0,0.0,0.0
11/04/2023,03:41:29,0.000,0.0,0.0,0.0
11/04/2023,03:42:28,0.000,0.0,0.0,0.0
11/04/2023,03:43:28,-0.001,0.0,0.0,0.0
11/04/2023,03:44:28,0.000,0.0,0.0,0.0
11/04/2023,03:45:28,0.000,0.0,0.0,0.0
11/04/2023,03:46:29,0.000,0.0,0.0,0.0
11/04/2023,03:47:29,0.001,0.0,0.0,0.0
11/04/2023,03:48:28,0.000,0.0,0.0,0.0
11/04/2023,03:49:29,0.000,0.0,0.0,0.0
11/04/2023,03:50:28,0.000,0.0,0.0,0.0
11/04/2023,03:51:29,0.001,0.0,0.0,0.0
11/04/2023,03:52:28,0.000,0.0,0.0,0.0
11/04/2023,03:53:29,-0.001,0.0,0.0,0.0
11/04/2023,03:54:28,0.000,0.0,0.0,0.0
11/04/2023,03:55:28,0.000,0.0,0.0,0.0
11/04/2023,03:56:28,0.000,0.0,0.0,0.0
11/04/2023,03:57:28,0.000,0.0,0.0,0.0
11/04/2023,03:58:28,0.000,0.0,0.0,0.0
11/04/2023,03:59:29,0.000,0.0,0.0,0.0
11/04/2023,04:00:28,0.000,0.0,0.0,0.0
11/04/2023,04:01:29,0.001,0.0,0.0,0.0
11/04/2023,04:02:28,0.000,0.0,0.0,0.0
11/04/2023,04:03:28,0.000,0.0,0.0,0.0
11/04/2023,04:04:28,0.001,0.0,0.0,0.0
11/04/2023,04:05:28,0.000,0.0,0.0,0.0
11/04/2023,04:06:28,0.001,0.0,0.0,0.0
11/04/2023,04:07:28,0.000,0.0,0.0,0.0
11/04/2023,04:08:29,-0.001,0.0,0.0,0.0
11/04/2023,04:09:29,0.000,0.0,0.0,0.0
11/04/2023,04:10:28,0.000,0.0,0.0,0.0
11/04/2023,04:11:28,0.000,0.0,0.0,0.0
11/04/2023,04:12:28,0.001,0.0,0.0,0.0
11/04/2023,04:13:28,0.000,0.0,0.0,0.0
11/04/2023,04:14:28,0.000,0.0,0.0,0.0
11/04/2023,04:15:28,0.001,0.0,0.0,0.0
11/04/2023,04:16:29,0.000,0.0,0.0,0.0
11/04/2023,04:17:29,0.001,0.0,0.0,0.0
11/04/2023,04:18:28,0.000,0.0,0.0,0.0
11/04/2023,04:19:28,-0.001,0.0,0.0,0.0
11/04/2023,04:20:28,0.000,0.0,0.0,0.0
11/04/2023,04:21:29,0.000,0.0,0.0,0.0
11/04/2023,04:22:28,0.000,0.0,0.0,0.0
11/04/2023,04:23:29,0.001,0.0,0.0,0.0
11/04/2023,04:24:29,0.000,0.0,0.0,0.0
11/04/2023,04:25:28,0.000,0.0,0.0,0.0
11/04/2023,04:26:28,0.000,0.0,0.0,0.0
11/04/2023,04:27:28,0.001,0.0,0.0,0.0
11/04/2023,04:28:28,0.000,0.0,0.0,0.0
11/04/2023,04:29:28,0.001,0.0,0.0,0.0
11/04/2023,04:30:28,0.000,0.0,0.0,0.0
11/04/2023,04:31:29,0.001,0.0,0.0,0.0
11/04/2023,04:32:29,0.000,0.0,0.0,0.0
11/04/2023,04:33:29,0.000,0.0,0.0,0.0
11/04/2023,04:34:30,0.001,0.0,0.0,0.0
11/04/2023,04:35:28,0.001,0.0,0.0,0.0
11/04/2023,04:36:29,-0.000,0.0,0.0,0.0
11/04/2023,04:37:29,0.000,0.0,0.0,0.0
11/04/2023,04:38:28,0.000,0.0,0.0,0.0
11/04/2023,04:39:28,0.000,0.0,0.0,0.0
11/04/2023,04:40:28,0.000,0.0,0.0,0.0
11/04/2023,04:41:29,0.000,0.0,0.0,0.0
11/04/2023,04:42:28,0.000,0.0,0.0,0.0
11/04/2023,04:43:28,0.000,0.0,0.0,0.0
11/04/2023,04:44:28,0.000,0.0,0.0,0.0
11/04/2023,04:45:28,0.000,0.0,0.0,0.0
11/04/2023,04:46:28,-0.001,0.0,0.0,0.0
11/04/2023,04:47:28,0.000,0.0,0.0,0.0
11/04/2023,04:48:28,0.000,0.0,0.0,0.0
11/04/2023,04:49:28,0.000,0.0,0.0,0.0
11/04/2023,04:50:28,0.001,0.0,0.0,0.0
11/04/2023,04:51:28,0.000,0.0,0.0,0.0
11/04/2023,04:52:28,0.000,0.0,0.0,0.0
11/04/2023,04:53:28,0.000,0.0,0.0,0.0
11/04/2023,04:54:28,0.000,0.0,0.0,0.0
11/04/2023,04:55:28,0.001,0.0,0.0,0.0
11/04/2023,04:56:28,0.001,0.0,0.0,0.0
11/04/2023,04:57:29,0.001,0.0,0.0,0.0
11/04/2023,04:58:28,0.001,0.0,0.0,0.0
11/04/2023,04:59:28,0.001,0.0,0.0,0.0
11/04/2023,05:00:28,0.001,0.0,0.0,0.0
11/04/2023,05:01:28,0.001,0.0,0.0,0.0
11/04/2023,05:03:06,0.001,0.0,0.0,0.0
11/04/2023,05:04:28,0.001,0.0,0.0,0.0
11/04/2023,05:05:29,0.001,0.0,0.0,0.0
11/04/2023,05:06:29,0.001,0.0,0.0,0.0
11/04/2023,05:07:28,0.001,0.0,0.0,0.0
11/04/2023,05:08:28,0.001,0.0,0.0,0.0
11/04/2023,05:09:28,0.002,0.0,0.0,0.0
11/04/2023,05:10:28,0.001,0.0,0.0,0.0
11/04/2023,05:11:28,0.002,0.0,0.0,0.0
11/04/2023,05:12:28,0.002,0.0,0.0,0.0
11/04/2023,05:13:28,0.002,0.0,0.0,0.0
11/04/2023,05:14:28,0.002,0.0,0.0,0.0
11/04/2023,05:15:28,0.002,0.0,0.0,0.0
11/04/2023,05:16:28,0.001,0.0,0.0,0.0
11/04/2023,05:17:29,0.002,0.0,0.0,0.0
11/04/2023,05:18:28,0.002,0.0,0.0,0.0
11/04/2023,05:19:28,0.002,0.0,0.0,0.0
11/04/2023,05:20:28,0.003,0.0,0.0,0.0
11/04/2023,05:21:28,0.003,0.0,0.0,0.0
11/04/2023,05:22:29,0.003,0.0,0.0,0.0
11/04/2023,05:23:29,0.004,0.0,0.0,0.0
11/04/2023,05:24:29,0.004,0.0,0.0,0.0
11/04/2023,05:25:29,0.003,0.0,0.0,0.0
11/04/2023,05:26:29,0.004,0.0,0.0,0.0
11/04/2023,05:28:05,0.004,0.0,0.0,0.0
11/04/2023,05:29:30,0.005,0.0,0.0,0.0
11/04/2023,05:30:28,0.006,0.0,0.0,0.0
11/04/2023,05:31:29,0.005,0.0,0.0,0.0
11/04/2023,05:32:28,0.006,0.0,0.0,0.0
11/04/2023,05:33:28,0.006,0.0,0.0,0.0
11/04/2023,05:34:28,0.006,0.0,0.0,0.0
11/04/2023,05:35:28,0.005,0.0,0.0,0.0
11/04/2023,05:36:28,0.007,0.0,0.0,0.0
11/04/2023,05:37:28,0.007,0.0,0.0,0.0
11/04/2023,05:38:28,0.008,0.0,0.001,0.001
11/04/2023,05:39:29,0.009,0.0,0.001,0.0
11/04/2023,05:40:29,0.008,0.0,0.001,0.0
11/04/2023,05:41:29,0.009,0.0,0.001,0.0
11/04/2023,05:42:29,0.009,0.0,0.001,0.0
11/04/2023,05:43:28,0.009,0.0,0.001,0.0
11/04/2023,05:44:28,0.010,0.0,0.001,0.0
11/04/2023,05:45:29,0.011,0.0,0.002,0.001
11/04/2023,05:46:29,0.011,0.0,0.002,0.0
11/04/2023,05:47:28,0.013,0.0,0.002,0.0
11/04/2023,05:48:28,0.012,0.0,0.002,0.0
11/04/2023,05:49:28,0.012,0.0,0.002,0.0
11/04/2023,05:50:28,0.013,0.0,0.003,0.001
11/04/2023,05:51:28,0.014,0.0,0.003,0.0
11/04/2023,05:52:29,0.014,0.0,0.003,0.0
11/04/2023,05:53:28,0.014,0.0,0.003,0.0
11/04/2023,05:54:28,0.015,0.0,0.004,0.001
11/04/2023,05:55:28,0.016,0.0,0.004,0.0
11/04/2023,05:56:29,0.017,0.0,0.004,0.0
11/04/2023,05:57:29,0.017,0.0,0.004,0.0
11/04/2023,05:58:29,0.018,0.0,0.005,0.001
11/04/2023,05:59:28,0.019,0.0,0.005,0.0
11/04/2023,06:00:28,0.019,0.0,0.005,0.0
11/04/2023,06:01:29,0.020,0.0,0.006,0.001
11/04/2023,06:02:29,0.020,0.0,0.006,0.0
11/04/2023,06:03:29,0.020,0.0,0.006,0.0
11/04/2023,06:04:28,0.022,0.0,0.007,0.001
11/04/2023,06:05:28,0.023,0.0,0.007,0.0
11/04/2023,06:06:29,0.023,0.0,0.007,0.0
11/04/2023,06:07:29,0.024,0.0,0.008,0.001
11/04/2023,06:08:29,0.026,0.0,0.008,0.0
11/04/2023,06:09:28,0.026,0.0,0.009,0.001
11/04/2023,06:10:29,0.026,0.0,0.009,0.0
11/04/2023,06:11:29,0.026,0.0,0.009,0.0
11/04/2023,06:12:28,0.028,0.0,0.01,0.001
11/04/2023,06:13:27,0.030,0.0,0.01,0.0
11/04/2023,06:14:51,0.030,0.0,0.011,0.001
11/04/2023,06:16:29,0.032,0.0,0.012,0.001
11/04/2023,06:17:29,0.034,0.0,0.012,0.0
11/04/2023,06:18:29,0.034,0.0,0.013,0.001
11/04/2023,06:19:28,0.035,0.0,0.014,0.001
11/04/2023,06:20:28,0.036,0.0,0.014,0.0
11/04/2023,06:21:28,0.036,0.0,0.015,0.001
11/04/2023,06:22:29,0.038,0.0,0.015,0.0
11/04/2023,06:23:29,0.040,0.0,0.016,0.001
11/04/2023,06:24:28,0.040,0.0,0.017,0.001
11/04/2023,06:25:29,0.041,0.0,0.017,0.0
11/04/2023,06:26:29,0.043,0.0,0.018,0.001
11/04/2023,06:27:29,0.043,0.0,0.019,0.001
11/04/2023,06:28:29,0.045,0.0,0.019,0.0
11/04/2023,06:29:28,0.047,0.0,0.02,0.001
11/04/2023,06:30:28,0.048,0.0,0.021,0.001
11/04/2023,06:31:28,0.049,0.0,0.022,0.001
11/04/2023,06:32:29,0.049,0.0,0.023,0.001
11/04/2023,06:33:29,0.051,0.0,0.023,0.0
11/04/2023,06:34:29,0.052,0.0,0.024,0.001
11/04/2023,06:35:28,0.054,0.0,0.025,0.001
11/04/2023,06:36:28,0.055,0.0,0.026,0.001
11/04/2023,06:37:29,0.057,0.0,0.027,0.001
11/04/2023,06:38:29,0.057,0.0,0.028,0.001
11/04/2023,06:39:29,0.059,0.0,0.029,0.001
11/04/2023,06:40:28,0.061,0.0,0.03,0.001
11/04/2023,06:41:28,0.062,0.0,0.031,0.001
11/04/2023,06:42:28,0.064,0.0,0.032,0.001
11/04/2023,06:43:28,0.065,0.0,0.033,0.001
11/04/2023,06:44:29,0.067,0.0,0.034,0.001
11/04/2023,06:45:28,0.069,0.0,0.035,0.001
11/04/2023,06:46:29,0.070,0.0,0.036,0.001
11/04/2023,06:47:28,0.072,0.0,0.038,0.002
11/04/2023,06:48:28,0.074,0.0,0.039,0.001
11/04/2023,06:49:28,0.076,0.0,0.04,0.001
11/04/2023,06:50:29,0.077,0.0,0.041,0.001
11/04/2023,06:51:29,0.078,0.0,0.043,0.002
11/04/2023,06:52:29,0.081,0.0,0.044,0.001
11/04/2023,06:53:29,0.082,0.0,0.045,0.001
11/04/2023,06:54:28,0.084,0.0,0.047,0.002
11/04/2023,06:55:29,0.086,0.0,0.048,0.001
11/04/2023,06:56:29,0.088,0.0,0.05,0.002
11/04/2023,06:57:29,0.090,0.0,0.051,0.001
11/04/2023,06:58:29,0.092,0.0,0.053,0.002
11/04/2023,06:59:29,0.094,0.0,0.054,0.001
11/04/2023,07:00:29,0.097,0.0,0.056,0.002
11/04/2023,07:01:29,0.099,0.0,0.057,0.001
11/04/2023,07:02:28,0.101,0.0,0.059,0.002
11/04/2023,07:03:29,0.103,0.0,0.061,0.002
11/04/2023,07:04:29,0.105,0.0,0.063,0.002
11/04/2023,07:05:29,0.108,0.0,0.064,0.001
11/04/2023,07:06:29,0.110,0.0,0.066,0.002
11/04/2023,07:07:29,0.112,0.0,0.068,0.002
11/04/2023,07:08:29,0.115,0.0,0.07,0.002
11/04/2023,07:09:29,0.118,0.0,0.072,0.002
11/04/2023,07:10:29,0.120,0.0,0.074,0.002
11/04/2023,07:11:29,0.122,0.0,0.076,0.002
11/04/2023,07:12:29,0.124,0.0,0.078,0.002
11/04/2023,07:13:28,0.127,0.0,0.08,0.002
11/04/2023,07:14:29,0.129,0.0,0.082,0.002
11/04/2023,07:15:28,0.133,0.0,0.084,0.002
11/04/2023,07:16:28,0.136,0.0,0.086,0.002
11/04/2023,07:17:28,0.138,0.0,0.089,0.003
11/04/2023,07:18:29,0.143,0.0,0.091,0.002
11/04/2023,07:19:29,0.144,0.0,0.093,0.002
11/04/2023,07:20:29,0.147,0.0,0.096,0.003
11/04/2023,07:21:29,0.149,0.0,0.098,0.002
11/04/2023,07:22:28,0.153,0.0,0.101,0.003
11/04/2023,07:23:28,0.157,0.0,0.104,0.003
11/04/2023,07:24:29,0.159,0.0,0.106,0.002
11/04/2023,07:25:29,0.163,0.0,0.109,0.003
11/04/2023,07:26:29,0.165,0.0,0.112,0.003
11/04/2023,07:27:28,0.169,0.0,0.114,0.002
11/04/2023,07:28:29,0.170,0.0,0.117,0.003
11/04/2023,07:29:28,0.175,0.0,0.12,0.003
11/04/2023,07:30:28,0.177,0.0,0.123,0.003
11/04/2023,07:31:29,0.180,0.0,0.126,0.003
11/04/2023,07:32:28,0.184,0.0,0.129,0.003
11/04/2023,07:33:29,0.188,0.0,0.132,0.003
11/04/2023,07:34:28,0.192,0.0,0.135,0.003
11/04/2023,07:35:29,0.194,0.0,0.139,0.004
11/04/2023,07:36:29,0.198,0.0,0.142,0.003
11/04/2023,07:37:29,0.201,0.0,0.145,0.003
11/04/2023,07:38:28,0.205,0.0,0.149,0.004
11/04/2023,07:39:29,0.209,0.0,0.152,0.003
11/04/2023,07:40:29,0.212,0.0,0.155,0.003
11/04/2023,07:41:28,0.217,0.0,0.159,0.004
11/04/2023,07:42:29,0.219,1.0,0.163,0.004
11/04/2023,07:43:29,0.223,1.0,0.166,0.003
11/04/2023,07:44:29,0.227,1.0,0.17,0.004
11/04/2023,07:45:28,0.230,1.0,0.174,0.004
11/04/2023,07:46:28,0.233,1.0,0.178,0.004
11/04/2023,07:47:28,0.239,1.0,0.182,0.004
11/04/2023,07:48:28,0.243,1.0,0.186,0.004
11/04/2023,07:49:28,0.246,1.0,0.19,0.004
11/04/2023,07:50:28,0.251,1.0,0.194,0.004
11/04/2023,07:51:29,0.255,1.0,0.198,0.004
11/04/2023,07:52:28,0.259,1.0,0.202,0.004
11/04/2023,07:53:28,0.264,1.0,0.207,0.005
11/04/2023,07:54:28,0.267,1.0,0.211,0.004
11/04/2023,07:55:28,0.272,1.0,0.216,0.005
11/04/2023,07:56:29,0.275,1.0,0.22,0.004
11/04/2023,07:57:28,0.280,1.0,0.225,0.005
11/04/2023,07:58:29,0.284,1.0,0.23,0.005
11/04/2023,07:59:29,0.290,1.0,0.234,0.004
11/04/2023,08:00:28,0.295,1.0,0.239,0.005
11/04/2023,08:01:28,0.299,1.0,0.244,0.005
11/04/2023,08:02:29,0.304,1.0,0.249,0.005
11/04/2023,08:03:28,0.308,1.0,0.254,0.005
11/04/2023,08:04:28,0.313,1.0,0.26,0.006
11/04/2023,08:05:28,0.318,1.0,0.265,0.005
11/04/2023,08:06:28,0.322,1.0,0.27,0.005
11/04/2023,08:07:29,0.327,1.0,0.276,0.006
11/04/2023,08:08:29,0.331,1.0,0.281,0.005
11/04/2023,08:09:29,0.336,1.0,0.287,0.006
11/04/2023,08:10:29,0.341,1.0,0.292,0.005
11/04/2023,08:11:29,0.346,1.0,0.298,0.006
11/04/2023,08:12:28,0.351,1.0,0.304,0.006
11/04/2023,08:13:28,0.356,1.0,0.31,0.006
11/04/2023,08:14:29,0.361,1.0,0.316,0.006
11/04/2023,08:15:28,0.366,1.0,0.322,0.006
11/04/2023,08:16:29,0.370,1.0,0.328,0.006
11/04/2023,08:17:29,0.377,1.0,0.334,0.006
11/04/2023,08:18:28,0.382,1.0,0.34,0.006
11/04/2023,08:19:28,0.387,1.0,0.347,0.007
11/04/2023,08:20:29,0.391,1.0,0.353,0.006
11/04/2023,08:21:28,0.398,1.0,0.36,0.007
11/04/2023,08:22:28,0.404,1.0,0.367,0.007
11/04/2023,08:23:28,0.409,1.0,0.373,0.006
11/04/2023,08:24:28,0.415,1.0,0.38,0.007
11/04/2023,08:25:29,0.421,1.0,0.387,0.007
11/04/2023,08:26:29,0.426,1.0,0.394,0.007
11/04/2023,08:27:28,0.432,1.0,0.401,0.007
11/04/2023,08:28:29,0.437,1.0,0.409,0.008
11/04/2023,08:29:28,0.441,1.0,0.416,0.007
11/04/2023,08:30:28,0.447,1.0,0.423,0.007
11/04/2023,08:31:28,0.451,1.0,0.431,0.008
11/04/2023,08:32:28,0.458,1.0,0.438,0.007
11/04/2023,08:33:28,0.461,1.0,0.446,0.008
11/04/2023,08:34:29,0.466,1.0,0.454,0.008
11/04/2023,08:35:29,0.473,1.0,0.462,0.008
11/04/2023,08:36:29,0.479,1.0,0.47,0.008
11/04/2023,08:37:29,0.486,1.0,0.478,0.008
11/04/2023,08:38:29,0.492,1.0,0.486,0.008
11/04/2023,08:39:29,0.496,1.0,0.494,0.008
11/04/2023,08:40:29,0.502,1.0,0.502,0.008
11/04/2023,08:41:28,0.452,1.0,0.51,0.008
11/04/2023,08:42:28,0.516,1.0,0.519,0.009
11/04/2023,08:43:32,0.525,1.0,0.528,0.009
11/04/2023,08:44:30,0.531,1.0,0.537,0.009
11/04/2023,08:45:29,0.434,1.0,0.544,0.007
11/04/2023,08:46:29,0.390,1.0,0.551,0.007
11/04/2023,08:47:29,0.440,1.0,0.558,0.007
11/04/2023,08:48:29,0.549,1.0,0.567,0.009
11/04/2023,08:49:29,0.560,1.0,0.576,0.009
11/04/2023,08:50:28,0.565,1.0,0.585,0.009
11/04/2023,08:51:28,0.571,1.0,0.595,0.01
11/04/2023,08:52:28,0.535,1.0,0.604,0.009
11/04/2023,08:53:29,0.592,1.0,0.614,0.01
11/04/2023,08:54:29,0.583,1.0,0.623,0.009
11/04/2023,08:55:29,0.590,1.0,0.633,0.01
11/04/2023,08:56:29,0.600,1.0,0.643,0.01
11/04/2023,08:57:29,0.607,1.0,0.653,0.01
11/04/2023,08:58:29,0.616,1.0,0.663,0.01
11/04/2023,08:59:29,0.629,1.0,0.673,0.01
11/04/2023,09:00:28,0.511,1.0,0.683,0.01
11/04/2023,09:01:28,0.527,1.0,0.692,0.009
11/04/2023,09:02:29,0.636,1.0,0.702,0.01
11/04/2023,09:03:29,0.649,1.0,0.713,0.011
11/04/2023,09:04:29,0.657,2.0,0.723,0.01
11/04/2023,09:05:29,0.671,2.0,0.733,0.01
11/04/2023,09:06:28,0.477,1.0,0.742,0.009
11/04/2023,09:07:29,0.526,1.0,0.751,0.009
11/04/2023,09:08:29,0.644,1.0,0.762,0.011
11/04/2023,09:09:29,0.526,1.0,0.772,0.01
11/04/2023,09:10:28,0.498,1.0,0.781,0.009
11/04/2023,09:11:28,0.625,1.0,0.79,0.009
11/04/2023,09:12:29,0.622,1.0,0.801,0.011
11/04/2023,09:13:29,0.490,1.0,0.81,0.009
11/04/2023,09:14:29,0.382,1.0,0.817,0.007
11/04/2023,09:15:29,0.345,1.0,0.823,0.006
11/04/2023,09:16:29,0.326,1.0,0.829,0.006
11/04/2023,09:17:29,0.318,1.0,0.834,0.005
11/04/2023,09:18:29,0.323,1.0,0.84,0.006
11/04/2023,09:19:28,0.348,1.0,0.845,0.005
11/04/2023,09:20:29,0.356,1.0,0.851,0.006
11/04/2023,09:21:29,0.328,1.0,0.857,0.006
11/04/2023,09:22:29,0.306,1.0,0.862,0.005
11/04/2023,09:23:29,0.320,1.0,0.867,0.005
11/04/2023,09:24:28,0.352,1.0,0.873,0.006
11/04/2023,09:25:29,0.377,1.0,0.879,0.006
11/04/2023,09:26:29,0.423,1.0,0.885,0.006
11/04/2023,09:27:29,0.551,1.0,0.894,0.009
11/04/2023,09:28:29,0.803,2.0,0.904,0.01
11/04/2023,09:29:30,0.524,1.0,0.914,0.01
11/04/2023,09:30:29,0.500,1.0,0.923,0.009
11/04/2023,09:31:29,0.614,1.0,0.932,0.009
11/04/2023,09:32:29,0.468,1.0,0.94,0.008
11/04/2023,09:33:29,0.445,1.0,0.948,0.008
11/04/2023,09:34:29,0.493,1.0,0.955,0.007
11/04/2023,09:35:29,0.593,1.0,0.966,0.011
11/04/2023,09:36:29,0.519,1.0,0.977,0.011
11/04/2023,09:37:29,0.530,1.0,0.985,0.008
11/04/2023,09:38:28,0.727,2.0,0.996,0.011
11/04/2023,09:39:28,0.649,1.0,1.007,0.011
11/04/2023,09:40:28,0.930,2.0,1.019,0.012
11/04/2023,09:41:29,0.933,2.0,1.034,0.015
11/04/2023,09:42:29,0.935,2.0,1.05,0.016
11/04/2023,09:43:29,0.759,2.0,1.065,0.015
11/04/2023,09:44:29,0.810,2.0,1.08,0.015
11/04/2023,09:45:29,0.612,1.0,1.093,0.013
11/04/2023,09:46:29,0.603,1.0,1.104,0.011
11/04/2023,09:47:28,0.928,2.0,1.114,0.01
11/04/2023,09:48:29,0.575,1.0,1.125,0.011
11/04/2023,09:49:29,0.586,1.0,1.135,0.01
11/04/2023,09:50:29,0.693,2.0,1.146,0.011
11/04/2023,09:51:29,0.792,2.0,1.16,0.014
11/04/2023,09:52:28,0.954,2.0,1.176,0.016
11/04/2023,09:53:29,0.591,1.0,1.187,0.011
11/04/2023,09:54:29,0.644,1.0,1.198,0.011
11/04/2023,09:55:28,0.669,2.0,1.21,0.012
11/04/2023,09:56:29,0.648,1.0,1.221,0.011
11/04/2023,09:57:28,0.660,2.0,1.232,0.011
11/04/2023,09:58:29,0.781,2.0,1.244,0.012
11/04/2023,09:59:29,1.051,2.0,1.259,0.015
11/04/2023,10:00:29,0.880,2.0,1.277,0.018
11/04/2023,10:01:29,1.034,2.0,1.294,0.017
11/04/2023,10:02:28,1.068,2.0,1.309,0.015
11/04/2023,10:03:28,1.048,2.0,1.327,0.018
11/04/2023,10:04:29,0.812,2.0,1.341,0.014
11/04/2023,10:05:29,0.748,2.0,1.354,0.013